Davenport, IA

1:15 PM CST on December 11, 2017 (GMT -0600)
Davenport Municipal

Weather History for KDVN - April, 2013

Change the Weather History Date:

Sunday, April 21, 2013

  Actual Average Record
Temperature  
Mean Temperature 47 °F 52 °F  
Max Temperature 59 °F 64 °F 84 °F (2001)
Min Temperature 35 °F 41 °F 28 °F (2011)
Degree Days  
Heating Degree Days 18 13  
Month to date heating degree days 431 344  
Since 1 July heating degree days 6285 6202  
Cooling Degree Days 0 0  
Month to date cooling degree days 0 0  
Year to date cooling degree days 0 0  
Moisture  
Dew Point 34 °F    
Average Humidity 60    
Maximum Humidity 70    
Minimum Humidity 50    
Precipitation  
Precipitation 0.00 in 0.12 in 2.00 in (1973)
Month to date precipitation 6.36 2.21  
Year to date precipitation 12.06 7.26  
Snow  
Snow 0.00 in - - ()
Month to date snowfall T  
Since 1 July snowfall 27.1  
Snow Depth 0.00 in    
Sea Level Pressure  
Sea Level Pressure 30.33 in    
Wind  
Wind Speed 18 mph (SSE)    
Max Wind Speed 29 mph    
Max Gust Speed 35 mph    
Visibility 10 miles    
Events      
T = Trace of Precipitation, MM = Missing Value Source: NWS Daily Summary

Daily Weather History Graph

Daily Weather History Graph

Search for Another Location

Airport or City:

Trip Planner

Search our weather history database for the weather conditions in past years. The results will help you decide how hot, cold, wet, or windy it might be!

Date:

Astronomy

Apr. 21, 2013 Rise Set
Actual Time 6:12 AM CDT 7:49 PM CDT
Civil Twilight 5:43 AM CDT 8:19 PM CDT
Nautical Twilight 5:08 AM CDT 8:54 PM CDT
Astronomical Twilight 4:30 AM CDT 9:32 PM CDT
Moon 3:32 PM CDT (4/21) 3:38 AM CDT (4/21)
Length of Visible Light 14h 35m
Length of Day
13h 36m
Waxing Gibbous, 80% of the Moon is Illuminated
Apr 21
Waxing Gibbous
Apr 25
Full
May 2
Last Quarter
May 9
New
May 17
First Quarter

Hourly Weather History & Observations

Time (CDT) Temp. Windchill Dew Point Humidity Pressure Visibility Wind Dir Wind Speed Gust Speed Precip Events Conditions
12:52 AM 36.0 °F 30.3 °F 26.1 °F 67% 30.39 in 10.0 mi ESE 6.9 mph - N/A   Clear
1:52 AM 37.0 °F 28.9 °F 27.0 °F 67% 30.38 in 10.0 mi SE 12.7 mph - N/A   Partly Cloudy
2:52 AM 37.9 °F 29.6 °F 27.0 °F 65% 30.38 in 10.0 mi SE 13.8 mph - N/A   Mostly Cloudy
3:52 AM 37.9 °F 27.9 °F 28.0 °F 68% 30.37 in 10.0 mi SE 19.6 mph - N/A   Mostly Cloudy
4:52 AM 37.9 °F 30.0 °F 28.0 °F 68% 30.37 in 10.0 mi SE 12.7 mph - N/A   Mostly Cloudy
5:52 AM 37.9 °F 29.2 °F 28.0 °F 68% 30.39 in 10.0 mi SE 15.0 mph - N/A   Mostly Cloudy
6:52 AM 37.9 °F 30.0 °F 28.0 °F 68% 30.43 in 10.0 mi SE 12.7 mph 21.9 mph N/A   Overcast
7:52 AM 39.0 °F 31.4 °F 28.0 °F 65% 30.44 in 10.0 mi SE 12.7 mph - N/A   Mostly Cloudy
9:52 AM 44.1 °F 35.7 °F 30.9 °F 60% 30.42 in 10.0 mi SSE 20.7 mph 28.8 mph N/A   Scattered Clouds
10:52 AM 46.0 °F 37.8 °F 30.9 °F 56% 30.40 in 10.0 mi SSE 23.0 mph 34.5 mph N/A   Mostly Cloudy
11:52 AM 46.9 °F - 32.0 °F 56% 30.38 in 10.0 mi SSE 20.7 mph 28.8 mph N/A   Mostly Cloudy
12:52 PM 53.1 °F - 35.1 °F 50% 30.36 in 10.0 mi South 20.7 mph 27.6 mph N/A   Scattered Clouds
1:52 PM 54.0 °F - 37.9 °F 55% 30.32 in 10.0 mi SSE 20.7 mph 28.8 mph N/A   Scattered Clouds
2:52 PM 57.9 °F - 39.9 °F 51% 30.30 in 10.0 mi SSE 19.6 mph 29.9 mph N/A   Mostly Cloudy
3:52 PM 57.9 °F - 39.9 °F 51% 30.27 in 10.0 mi SSE 21.9 mph 27.6 mph N/A   Partly Cloudy
4:52 PM 59.0 °F - 41.0 °F 51% 30.26 in 10.0 mi SSE 19.6 mph 26.5 mph N/A   Clear
5:52 PM 57.9 °F - 41.0 °F 53% 30.24 in 10.0 mi SSE 19.6 mph 26.5 mph N/A   Clear
6:52 PM 55.9 °F - 39.9 °F 55% 30.25 in 10.0 mi SSE 18.4 mph 26.5 mph N/A   Clear
7:52 PM 53.1 °F - 39.9 °F 61% 30.25 in 10.0 mi SSE 19.6 mph - N/A   Partly Cloudy
8:52 PM 52.0 °F - 39.0 °F 61% 30.26 in 10.0 mi SSE 16.1 mph - N/A   Clear
9:52 PM 52.0 °F - 39.0 °F 61% 30.27 in 10.0 mi SSE 21.9 mph 28.8 mph N/A   Clear
10:52 PM 50.0 °F - 39.0 °F 66% 30.26 in 10.0 mi SSE 21.9 mph 28.8 mph N/A   Clear
11:52 PM 50.0 °F - 37.9 °F 63% 30.25 in 10.0 mi SSE 19.6 mph 26.5 mph N/A   Clear